Sioux City, IA

8:29 PM CDT on March 26, 2017 (GMT -0500)
Sioux Gateway

Weather History for KSUX - August, 2014

Change the Weather History Date:

Friday, August 22, 2014

  Actual Average Record
Temperature  
Mean Temperature 82 °F 72 °F  
Max Temperature 91 °F 83 °F 100 °F (1914)
Min Temperature 73 °F 60 °F 43 °F (1923)
Degree Days  
Heating Degree Days 0 0  
Month to date heating degree days 0 0  
Since 1 June heating degree days 26 30  
Since 1 July heating degree days 6 3  
Cooling Degree Days 17 7  
Month to date cooling degree days 193 178  
Year to date cooling degree days 702 723  
Since 1 June cooling degree days 581 659  
Growing Degree Days 32 (Base 50)    
Moisture  
Dew Point 73 °F    
Average Humidity 77    
Maximum Humidity 94    
Minimum Humidity 59    
Precipitation  
Precipitation T in 0.10 in 3.19 in (1988)
Month to date precipitation 6.39 2.28  
Year to date precipitation 31.90 19.59  
Snow  
Snow 0.00 in 0.00 in 0.00 in ()
Month to date snowfall 0.0 0.0  
Since 1 June snowfall 0.0 0.0  
Since 1 July snowfall 0.0 0.0  
Snow Depth 0.00 in    
Sea Level Pressure  
Sea Level Pressure 29.90 in    
Wind  
Wind Speed 5 mph (NE)    
Max Wind Speed 15 mph    
Max Gust Speed 19 mph    
Visibility 10 miles    
Events      
T = Trace of Precipitation, MM = Missing Value Source: NWS Daily Summary

Daily Weather History Graph

Daily Weather History Graph

Search for Another Location

Airport or City:

Trip Planner

Search our weather history database for the weather conditions in past years. The results will help you decide how hot, cold, wet, or windy it might be!

Date:

Astronomy

Aug. 22, 2014 Rise Set
Actual Time 6:40 AM CDT 8:15 PM CDT
Civil Twilight 6:10 AM CDT 8:45 PM CDT
Nautical Twilight 5:34 AM CDT 9:21 PM CDT
Astronomical Twilight 4:56 AM CDT 9:59 PM CDT
Moon 4:02 AM CDT (8/22) 6:26 PM CDT (8/22)
Length of Visible Light 14h 35m
Length of Day
13h 35m
Waning Crescent, 7% of the Moon is Illuminated
Aug 22
Waning Crescent
Aug 25
New
Sep 2
First Quarter
Sep 8
Full
Sep 15
Last Quarter

Hourly Weather History & Observations

Time (CDT) Temp. Heat Index Dew Point Humidity Pressure Visibility Wind Dir Wind Speed Gust Speed Precip Events Conditions
12:52 AM 77.0 °F - 73.9 °F 90% 29.83 in 10.0 mi Calm Calm - N/A   Clear
1:52 AM 77.0 °F - 73.9 °F 90% 29.82 in 10.0 mi North 6.9 mph - N/A   Clear
2:52 AM 75.9 °F - 73.0 °F 91% 29.84 in 9.0 mi SW 3.5 mph - N/A   Clear
3:52 AM 75.2 °F - 71.6 °F 89% 29.88 in 9.0 mi Calm Calm - N/A   Clear
4:52 AM 73.0 °F - 71.1 °F 93% 29.86 in 8.0 mi NW 5.8 mph - N/A   Clear
5:52 AM 73.9 °F - 71.1 °F 91% 29.87 in 10.0 mi NNW 8.1 mph - N/A   Clear
6:52 AM 73.4 °F - 69.8 °F 88% 29.89 in 8.0 mi North 4.6 mph - N/A   Clear
7:52 AM 75.0 °F - 71.1 °F 87% 29.88 in 8.0 mi Calm Calm - N/A   Clear
8:52 AM 79.0 °F - 72.0 °F 79% 29.89 in 10.0 mi Calm Calm - N/A   Clear
9:52 AM 82.0 °F 86.7 °F 72.0 °F 71% 29.90 in 10.0 mi NNW 3.5 mph - N/A   Clear
10:52 AM 84.9 °F 92.1 °F 73.9 °F 69% 29.91 in 10.0 mi NE 4.6 mph - N/A   Clear
11:52 AM 87.8 °F 95.6 °F 73.4 °F 62% 29.94 in 10.0 mi North 6.9 mph - N/A   Scattered Clouds
12:34 PM 86.0 °F 93.0 °F 73.0 °F 65% 29.95 in 10.0 mi ENE 9.2 mph - N/A   Mostly Cloudy
12:52 PM 87.1 °F 93.6 °F 72.0 °F 61% 29.92 in 10.0 mi NNE 8.1 mph - N/A   Mostly Cloudy
1:52 PM 88.0 °F 94.7 °F 72.0 °F 59% 29.91 in 10.0 mi ENE 10.4 mph - N/A   Mostly Cloudy
2:52 PM 90.0 °F 97.9 °F 73.0 °F 57% 29.90 in 10.0 mi Variable 4.6 mph - N/A   Clear
3:52 PM 89.6 °F 98.2 °F 73.4 °F 59% 29.92 in 10.0 mi ENE 9.2 mph - N/A   Scattered Clouds
4:52 PM 89.1 °F 99.1 °F 75.0 °F 63% 29.89 in 10.0 mi NNE 10.4 mph - N/A   Scattered Clouds
5:52 PM 88.0 °F 97.5 °F 75.0 °F 65% 29.89 in 10.0 mi ENE 8.1 mph - N/A   Scattered Clouds
6:52 PM 86.0 °F 95.1 °F 75.0 °F 70% 29.89 in 10.0 mi East 11.5 mph - N/A   Clear
7:52 PM 82.9 °F 90.2 °F 75.0 °F 77% 29.91 in 10.0 mi ENE 9.2 mph - N/A   Scattered Clouds
8:41 PM 81.0 °F 86.7 °F 75.0 °F 82% 29.93 in 10.0 mi SE 8.1 mph 17.3 mph N/A   Mostly Cloudy
8:52 PM 80.6 °F 86.2 °F 75.2 °F 84% 29.93 in 10.0 mi East 4.6 mph - N/A   Scattered Clouds
9:52 PM 79.0 °F - 72.0 °F 79% 29.93 in 10.0 mi Calm Calm - N/A   Partly Cloudy
10:52 PM 77.0 °F - 72.0 °F 84% 29.93 in 10.0 mi Calm Calm - 0.00 in   Partly Cloudy
11:23 PM 78.1 °F - 72.0 °F 81% 29.95 in 10.0 mi ENE 5.8 mph - N/A   Mostly Cloudy
11:36 PM 78.1 °F - 72.0 °F 81% 29.94 in 10.0 mi East 5.8 mph - N/A   Mostly Cloudy
11:52 PM 77.0 °F - 71.6 °F 83% 29.94 in 10.0 mi Calm Calm - N/A   Partly Cloudy